Regional Weather Roundup
Issued by NWS

Home | Current Version | Previous Version | Graphics & Text | Print | Product List | Glossary On
Versions: 1 2 3 4 5 6 7 8 9 10 11 12 13 14 15 16 17 18 19 20 21 22 23 24 25 26 27 28 29 30 31 32 33 34 35 36 37 38 39 40 41 42 43 44 45 46 47 48 49 50
000
ASUS43 KDTX 022201
RWRMI
MICHIGAN HOURLY REGIONAL WEATHER ROUNDUP
NATIONAL WEATHER SERVICE DETROIT/PONTIAC MI
600 PM EDT TUE SEP 02 2014

NOTE: "FAIR" INDICATES FEW OR NO CLOUDS BELOW 12,000 FEET WITH NO
SIGNIFICANT WEATHER AND/OR OBSTRUCTION TO VISIBILITY.

MIZ047>049-052>055-059>063-066>070-074>076-081>083-022300-
SOUTHEAST LOWER MICHIGAN

CITY           SKY/WX    TMP DP  RH WIND       PRES   REMARKS
ADRIAN         SUNNY     79  61  53 NW7       29.90S
ALMA           MOSUNNY   77  53  43 NW9       29.89S
ANN ARBOR      MOSUNNY   78  58  49 NW12      29.89S
BAD AXE        MOSUNNY   75  56  50 W10       29.87S
CARO           MOSUNNY   75  59  58 NW5       29.87S
DETROIT CITY   SUNNY     81  56  42 NW9       29.88R
DETROIT        MOSUNNY   78  60  53 NW8       29.89S
FLINT          MOSUNNY   80  56  43 NW14      29.89R
GROSSE ILE     MOSUNNY   79  63  57 NW8       29.87S
HILLSDALE      MOSUNNY   79  60  52 W9        29.91S
HOWELL         SUNNY     75  56  51 W9        29.90S

CITY           SKY/WX    TMP DP  RH WIND       PRES   REMARKS
JACKSON        SUNNY     77  62  59 NW8       29.90S
LAMBERTVILLE   CLOUDY    75  64  69 NW3       29.90R
LANSING        SUNNY     77  56  48 NW8       29.90S
LAPEER         FAIR      76  56  49 NW8       29.89S
MASON          CLOUDY    74  60  62 NW7       29.90S
MT. CLEMENS    MOSUNNY   78  54  44 NW10      29.87R
PONTIAC        MOSUNNY   76  58  53 NW10      29.89S
PORT HOPE        N/A     77  55  46 W7G16     29.85R
TRI CITIES     MOSUNNY   79  56  45 W12       29.88S
TROY           SUNNY     79  54  41 W8        29.90S
SAGINAW HB     SUNNY     79  54  41 W7        29.87S
$$
MIZ043>046-050>051-056>058-064>065-071>073-077>080-022300-
SOUTHWEST LOWER MICHIGAN

CITY           SKY/WX    TMP DP  RH WIND       PRES   REMARKS
BATTLE CREEK   MOSUNNY   78  59  51 NW12      29.91F
BENTON HARBOR  SUNNY     76  61  59 NW5       29.91S
BIG RAPIDS     SUNNY     76  57  52 W10       29.89S
COLDWATER      SUNNY     79  61  53 NW9       29.91S
FREMONT        FAIR      77  49  37 W5        29.90R
HOLLAND        SUNNY     76  60  57 W7        29.92S
GRAND RAPIDS   MOSUNNY   78  57  48 NW10      29.91R
IONIA          FAIR      79  51  38 W10       29.89S
KALAMAZOO      MOSUNNY   78  60  53 NW9       29.91S
LUDINGTON      SUNNY     74  63  66 SW9       29.90R
MARSHALL       MOSUNNY   77  59  54 NW7G21    29.90S
MOUNT PLEASANT MOSUNNY   76  54  45 NW7       29.88S
MUSKEGON       PTSUNNY   76  56  49 W7        29.91S
SOUTH HAVEN    SUNNY     76  64  65 NW6       29.91F
$$
MIZ016>042-022300-
NORTHERN LOWER MICHIGAN

CITY           SKY/WX    TMP DP  RH WIND       PRES   REMARKS
ALPENA         CLOUDY    74  53  48 W5        29.84S
BEAVER ISLAND  SUNNY     69  60  72 SW14G22   29.83F
BELLAIRE       MOSUNNY   74  53  49 W5        29.86R
CADILLAC       MOSUNNY   73  57  56 W10       29.89F
CHARLEVOIX     SUNNY     72  58  61 W12       29.88S
FRANKFORT      SUNNY     73  60  64 SW9       29.87F
GAYLORD        PTSUNNY   71  53  52 W14       29.87S
GRAYLING       PTSUNNY   74  54  49 W7        29.89S
HARBOR SPRINGS MOSUNNY   72  59  64 W7        29.85S
HOUGHTON LAKE  MOSUNNY   73  56  54 W10       29.89S
MANISTEE       SUNNY     73  57  56 W8        29.89S
OSCODA         PTSUNNY   76  54  46 W9        29.85S
PELLSTON       MOSUNNY   72  56  57 W10       29.84S
TRAVERSE CITY  MOSUNNY   76  55  48 W9        29.85S
$$
MIZ007>008-015-022300-
EASTERN UPPER MICHIGAN

CITY           SKY/WX    TMP DP  RH WIND       PRES   REMARKS
KINROSS        CLOUDY    72  55  56 SW9       29.83R
MACKINAC ISLAN PTSUNNY   67  59  74 SW9       29.83S
NEWBERRY       RAIN      62  59  88 W8G23     29.83R
S. S. MARIE    CLOUDY    71  57  61 W5        29.81R
$$
MIZ004>006-011>014-085-022300-
CENTRAL UPPER MICHIGAN

CITY           SKY/WX    TMP DP  RH WIND       PRES   REMARKS
MANISTIQUE     MOSUNNY   70  62  74 SW7G18    29.81R
ESCANABA       SUNNY     75  54  46 W9        29.82R
MENOMINEE      SUNNY     75  57  53 W7        29.84R
SAWYER-GWINN   PTSUNNY   72  48  43 W8        29.84R
$$
MIZ001>003-009>011-084-022300-
WESTERN UPPER MICHIGAN

CITY           SKY/WX    TMP DP  RH WIND       PRES   REMARKS
IRON MOUNTAIN  MOSUNNY   76  47  35 NW9       29.84R
HOUGHTON       MOSUNNY   70  48  45 W12       29.80F
COPPER HARBOR    N/A     74  47  38 NW9G18    29.78S
$$

ABBREVIATIONS USED IN REMARKS
   TC - TEMPERATURE IN CELSIUS
  WCI - WIND CHILL INDEX
   HX - HEAT INDEX
  VSB - VISIBILITY




USA.gov is the U.S. government's official web portal to all federal, state and local government web resources and services.